Year,Month,Day,Hour,Minute,Value (Times are PST for temperature in C)
2012,09,18,00,00,15.00
2012,09,18,00,01,15.00
2012,09,18,00,02,15.00
2012,09,18,00,03,15.00
2012,09,18,00,04,15.00
2012,09,18,00,05,15.00
2012,09,18,00,06,14.90
2012,09,18,00,07,14.90
2012,09,18,00,08,14.90
2012,09,18,00,09,14.90
2012,09,18,00,10,14.90
2012,09,18,00,11,14.90
2012,09,18,00,12,14.90
2012,09,18,00,13,14.90
2012,09,18,00,14,14.90
2012,09,18,00,15,14.90
2012,09,18,00,16,14.80
2012,09,18,00,17,14.80
2012,09,18,00,18,14.80
2012,09,18,00,19,14.80
2012,09,18,00,20,14.80
2012,09,18,00,21,14.80
2012,09,18,00,22,14.80
2012,09,18,00,23,14.80
2012,09,18,00,24,14.80
2012,09,18,00,25,14.80
2012,09,18,00,26,14.80
2012,09,18,00,27,14.80
2012,09,18,00,28,14.80
2012,09,18,00,29,14.80
2012,09,18,00,30,14.80
2012,09,18,00,31,14.80
2012,09,18,00,32,14.80
2012,09,18,00,33,14.80
2012,09,18,00,34,14.80
2012,09,18,00,35,14.80
2012,09,18,00,36,14.80
2012,09,18,00,37,14.80
2012,09,18,00,38,14.80
2012,09,18,00,39,14.80
2012,09,18,00,40,14.80
2012,09,18,00,41,14.80
2012,09,18,00,42,14.80
2012,09,18,00,43,14.90
2012,09,18,00,44,15.00
2012,09,18,00,45,15.10
2012,09,18,00,46,15.10
2012,09,18,00,47,15.20
2012,09,18,00,48,15.30
2012,09,18,00,49,15.30
2012,09,18,00,50,15.30
2012,09,18,00,51,15.30
2012,09,18,00,52,15.30
2012,09,18,00,53,15.30
2012,09,18,00,54,15.40
2012,09,18,00,55,15.40
2012,09,18,00,56,15.40
2012,09,18,00,57,15.50
2012,09,18,00,58,15.40
2012,09,18,00,59,15.40
2012,09,18,01,00,15.40
2012,09,18,01,01,15.40
2012,09,18,01,02,15.40
2012,09,18,01,03,15.40
2012,09,18,01,04,15.40
2012,09,18,01,05,15.40
2012,09,18,01,06,15.30
2012,09,18,01,07,15.30
2012,09,18,01,08,15.30
2012,09,18,01,09,15.30
2012,09,18,01,10,15.30
2012,09,18,01,11,15.30
2012,09,18,01,12,15.30
2012,09,18,01,13,15.30
2012,09,18,01,14,15.20
2012,09,18,01,15,15.20
2012,09,18,01,16,15.20
2012,09,18,01,17,15.10
2012,09,18,01,18,15.10
2012,09,18,01,19,15.00
2012,09,18,01,20,15.00
2012,09,18,01,21,15.00
2012,09,18,01,22,14.90
2012,09,18,01,23,14.90
2012,09,18,01,24,14.90
2012,09,18,01,25,14.90
2012,09,18,01,26,14.80
2012,09,18,01,27,14.80
2012,09,18,01,28,14.80
2012,09,18,01,29,14.80
2012,09,18,01,30,14.80
2012,09,18,01,31,14.80
2012,09,18,01,32,14.80
2012,09,18,01,33,14.80
2012,09,18,01,34,14.80
2012,09,18,01,35,14.80
2012,09,18,01,36,14.80
2012,09,18,01,37,14.80
2012,09,18,01,38,14.80
2012,09,18,01,39,14.90
2012,09,18,01,40,14.90
2012,09,18,01,41,14.90
2012,09,18,01,42,15.00
2012,09,18,01,43,15.00
2012,09,18,01,44,15.00
2012,09,18,01,45,15.00
2012,09,18,01,46,15.00
2012,09,18,01,47,15.00
2012,09,18,01,48,14.90
2012,09,18,01,49,14.90
2012,09,18,01,50,14.90
2012,09,18,01,51,14.90
2012,09,18,01,52,14.80
2012,09,18,01,53,14.80
2012,09,18,01,54,14.80
2012,09,18,01,55,14.90
2012,09,18,01,56,14.90
2012,09,18,01,57,15.00
2012,09,18,01,58,15.10
2012,09,18,01,59,15.20
2012,09,18,02,00,15.30
2012,09,18,02,01,15.40
2012,09,18,02,02,15.40
2012,09,18,02,03,15.50
2012,09,18,02,04,15.50
2012,09,18,02,05,15.50
2012,09,18,02,06,15.50
2012,09,18,02,07,15.50
2012,09,18,02,08,15.40
2012,09,18,02,09,15.40
2012,09,18,02,10,15.50
2012,09,18,02,11,15.50
2012,09,18,02,12,15.50
2012,09,18,02,13,15.50
2012,09,18,02,14,15.40
2012,09,18,02,15,15.30
2012,09,18,02,16,15.30
2012,09,18,02,17,15.30
2012,09,18,02,18,15.30
2012,09,18,02,19,15.30
2012,09,18,02,20,15.30
2012,09,18,02,21,15.30
2012,09,18,02,22,15.20
2012,09,18,02,23,15.20
2012,09,18,02,24,15.10
2012,09,18,02,25,15.00
2012,09,18,02,26,14.90
2012,09,18,02,27,14.80
2012,09,18,02,28,14.70
2012,09,18,02,29,14.60
2012,09,18,02,30,14.60
2012,09,18,02,31,14.50
2012,09,18,02,32,14.40
2012,09,18,02,33,14.40
2012,09,18,02,34,14.30
2012,09,18,02,35,14.30
2012,09,18,02,36,14.20
2012,09,18,02,37,14.20
2012,09,18,02,38,14.20
2012,09,18,02,39,14.10
2012,09,18,02,40,14.10
2012,09,18,02,41,14.10
2012,09,18,02,42,14.00
2012,09,18,02,43,14.00
2012,09,18,02,44,13.90
2012,09,18,02,45,13.90
2012,09,18,02,46,13.90
2012,09,18,02,47,13.80
2012,09,18,02,48,13.70
2012,09,18,02,49,13.70
2012,09,18,02,50,13.60
2012,09,18,02,51,13.60
2012,09,18,02,52,13.50
2012,09,18,02,53,13.50
2012,09,18,02,54,13.40
2012,09,18,02,55,13.40
2012,09,18,02,56,13.40
2012,09,18,02,57,13.40
2012,09,18,02,58,13.30
2012,09,18,02,59,13.30
2012,09,18,03,00,13.30
2012,09,18,03,01,13.30
2012,09,18,03,02,13.30
2012,09,18,03,03,13.40
2012,09,18,03,04,13.40
2012,09,18,03,05,13.40
2012,09,18,03,06,13.50
2012,09,18,03,07,13.50
2012,09,18,03,08,13.60
2012,09,18,03,09,13.60
2012,09,18,03,10,13.60
2012,09,18,03,11,13.60
2012,09,18,03,12,13.60
2012,09,18,03,13,13.60
2012,09,18,03,14,13.60
2012,09,18,03,15,13.60
2012,09,18,03,16,13.60
2012,09,18,03,17,13.60
2012,09,18,03,18,13.60
2012,09,18,03,19,13.70
2012,09,18,03,20,13.70
2012,09,18,03,21,13.70
2012,09,18,03,22,13.70
2012,09,18,03,23,13.70
2012,09,18,03,24,13.70
2012,09,18,03,25,13.70
2012,09,18,03,26,13.60
2012,09,18,03,27,13.60
2012,09,18,03,28,13.50
2012,09,18,03,29,13.50
2012,09,18,03,30,13.40
2012,09,18,03,31,13.30
2012,09,18,03,32,13.30
2012,09,18,03,33,13.30
2012,09,18,03,34,13.20
2012,09,18,03,35,13.20
2012,09,18,03,36,13.20
2012,09,18,03,37,13.20
2012,09,18,03,38,13.20
2012,09,18,03,39,13.20
2012,09,18,03,40,13.30
2012,09,18,03,41,13.30
2012,09,18,03,42,13.40
2012,09,18,03,43,13.50
2012,09,18,03,44,13.60
2012,09,18,03,45,13.60
2012,09,18,03,46,13.70
2012,09,18,03,47,13.70
2012,09,18,03,48,13.70
2012,09,18,03,49,13.70
2012,09,18,03,50,13.60
2012,09,18,03,51,13.60
2012,09,18,03,52,13.40
2012,09,18,03,53,13.30
2012,09,18,03,54,13.30
2012,09,18,03,55,13.20
2012,09,18,03,56,13.10
2012,09,18,03,57,13.10
2012,09,18,03,58,13.00
2012,09,18,03,59,13.00
2012,09,18,04,00,12.90
2012,09,18,04,01,12.90
2012,09,18,04,02,12.80
2012,09,18,04,03,12.80
2012,09,18,04,04,12.80
2012,09,18,04,05,12.80
2012,09,18,04,06,12.80
2012,09,18,04,07,12.80
2012,09,18,04,08,12.80
2012,09,18,04,09,12.80
2012,09,18,04,10,12.80
2012,09,18,04,11,12.80
2012,09,18,04,12,12.80
2012,09,18,04,13,12.80
2012,09,18,04,14,12.80
2012,09,18,04,15,12.80
2012,09,18,04,16,12.80
2012,09,18,04,17,12.80
2012,09,18,04,18,12.80
2012,09,18,04,19,12.80
2012,09,18,04,20,12.80
2012,09,18,04,21,12.90
2012,09,18,04,22,13.00
2012,09,18,04,23,13.20
2012,09,18,04,24,13.30
2012,09,18,04,25,13.40
2012,09,18,04,26,13.50
2012,09,18,04,27,13.50
2012,09,18,04,28,13.60
2012,09,18,04,29,13.60
2012,09,18,04,30,13.60
2012,09,18,04,31,13.70
2012,09,18,04,32,13.70
2012,09,18,04,33,13.70
2012,09,18,04,34,13.70
2012,09,18,04,35,13.70
2012,09,18,04,36,13.80
2012,09,18,04,37,13.80
2012,09,18,04,38,13.90
2012,09,18,04,39,13.90
2012,09,18,04,40,13.90
2012,09,18,04,41,13.90
2012,09,18,04,42,13.90
2012,09,18,04,43,13.90
2012,09,18,04,44,13.90
2012,09,18,04,45,13.90
2012,09,18,04,46,14.00
2012,09,18,04,47,14.00
2012,09,18,04,48,14.00
2012,09,18,04,49,14.10
2012,09,18,04,50,14.10
2012,09,18,04,51,14.10
2012,09,18,04,52,14.10
2012,09,18,04,53,14.00
2012,09,18,04,54,14.00
2012,09,18,04,55,13.90
2012,09,18,04,56,13.90
2012,09,18,04,57,13.80
2012,09,18,04,58,13.70
2012,09,18,04,59,13.70
2012,09,18,05,00,13.60
2012,09,18,05,01,13.50
2012,09,18,05,02,13.50
2012,09,18,05,03,13.40
2012,09,18,05,04,13.30
2012,09,18,05,05,13.30
2012,09,18,05,06,13.20
2012,09,18,05,07,13.10
2012,09,18,05,08,13.00
2012,09,18,05,09,12.90
2012,09,18,05,10,12.80
2012,09,18,05,11,12.80
2012,09,18,05,12,12.70
2012,09,18,05,13,12.70
2012,09,18,05,14,12.70
2012,09,18,05,15,12.60
2012,09,18,05,16,12.60
2012,09,18,05,17,12.50
2012,09,18,05,18,12.50
2012,09,18,05,19,12.50
2012,09,18,05,20,12.50
2012,09,18,05,21,12.40
2012,09,18,05,22,12.40
2012,09,18,05,23,12.40
2012,09,18,05,24,12.30
2012,09,18,05,25,12.30
2012,09,18,05,26,12.30
2012,09,18,05,27,12.20
2012,09,18,05,28,12.10
2012,09,18,05,29,12.10
2012,09,18,05,30,12.00
2012,09,18,05,31,12.00
2012,09,18,05,32,11.90
2012,09,18,05,33,11.90
2012,09,18,05,34,11.90
2012,09,18,05,35,11.90
2012,09,18,05,36,11.90
2012,09,18,05,37,11.90
2012,09,18,05,38,11.90
2012,09,18,05,39,11.90
2012,09,18,05,40,11.90
2012,09,18,05,41,11.90
2012,09,18,05,42,11.90
2012,09,18,05,43,11.90
2012,09,18,05,44,11.90
2012,09,18,05,45,11.90
2012,09,18,05,46,11.90
2012,09,18,05,47,11.90
2012,09,18,05,48,11.90
2012,09,18,05,49,11.90
2012,09,18,05,50,11.90
2012,09,18,05,51,11.90
2012,09,18,05,52,12.00
2012,09,18,05,53,12.00
2012,09,18,05,54,12.00
2012,09,18,05,55,12.00
2012,09,18,05,56,12.00
2012,09,18,05,57,12.00
2012,09,18,05,58,12.00
2012,09,18,05,59,12.00
2012,09,18,06,00,12.10
2012,09,18,06,01,12.20
2012,09,18,06,02,12.20
2012,09,18,06,03,12.20
2012,09,18,06,04,12.20
2012,09,18,06,05,12.20
2012,09,18,06,06,12.20
2012,09,18,06,07,12.20
2012,09,18,06,08,12.20
2012,09,18,06,09,12.20
2012,09,18,06,10,12.20
2012,09,18,06,11,12.10
2012,09,18,06,12,12.10
2012,09,18,06,13,12.10
2012,09,18,06,14,12.10
2012,09,18,06,15,12.10
2012,09,18,06,16,12.10
2012,09,18,06,17,12.00
2012,09,18,06,18,12.00
2012,09,18,06,19,12.10
2012,09,18,06,20,12.10
2012,09,18,06,21,12.10
2012,09,18,06,22,12.10
2012,09,18,06,23,12.10
2012,09,18,06,24,12.10
2012,09,18,06,25,12.10
2012,09,18,06,26,12.10
2012,09,18,06,27,12.00
2012,09,18,06,28,12.00
2012,09,18,06,29,12.00
2012,09,18,06,30,12.00
2012,09,18,06,31,12.00
2012,09,18,06,32,12.00
2012,09,18,06,33,12.10
2012,09,18,06,34,12.10
2012,09,18,06,35,12.20
2012,09,18,06,36,12.20
2012,09,18,06,37,12.30
2012,09,18,06,38,12.30
2012,09,18,06,39,12.30
2012,09,18,06,40,12.30
2012,09,18,06,41,12.30
2012,09,18,06,42,12.30
2012,09,18,06,43,12.30
2012,09,18,06,44,12.30
2012,09,18,06,45,12.30
2012,09,18,06,46,12.30
2012,09,18,06,47,12.30
2012,09,18,06,48,12.30
2012,09,18,06,49,12.30
2012,09,18,06,50,12.30
2012,09,18,06,51,12.30
2012,09,18,06,52,12.40
2012,09,18,06,53,12.40
2012,09,18,06,54,12.50
2012,09,18,06,55,12.70
2012,09,18,06,56,12.80
2012,09,18,06,57,12.80
2012,09,18,06,58,12.80
2012,09,18,06,59,12.80
2012,09,18,07,00,12.90
2012,09,18,07,01,12.90
2012,09,18,07,02,12.90
2012,09,18,07,03,12.90
2012,09,18,07,04,12.90
2012,09,18,07,05,12.90
2012,09,18,07,06,12.80
2012,09,18,07,07,12.80
2012,09,18,07,08,12.80
2012,09,18,07,09,12.80
2012,09,18,07,10,12.80
2012,09,18,07,11,12.70
2012,09,18,07,12,12.60
2012,09,18,07,13,12.60
2012,09,18,07,14,12.50
2012,09,18,07,15,12.40
2012,09,18,07,16,12.40
2012,09,18,07,17,12.30
2012,09,18,07,18,12.30
2012,09,18,07,19,12.30
2012,09,18,07,20,12.20
2012,09,18,07,21,12.20
2012,09,18,07,22,12.20
2012,09,18,07,23,12.20
2012,09,18,07,24,12.30
2012,09,18,07,25,12.30
2012,09,18,07,26,12.30
2012,09,18,07,27,12.30
2012,09,18,07,28,12.30
2012,09,18,07,29,12.40
2012,09,18,07,30,12.50
2012,09,18,07,31,12.60
2012,09,18,07,32,12.80
2012,09,18,07,33,12.90
2012,09,18,07,34,13.10
2012,09,18,07,35,13.20
2012,09,18,07,36,13.40
2012,09,18,07,37,13.50
2012,09,18,07,38,13.60
2012,09,18,07,39,13.70
2012,09,18,07,40,13.80
2012,09,18,07,41,13.90
2012,09,18,07,42,14.00
2012,09,18,07,43,14.10
2012,09,18,07,44,14.10
2012,09,18,07,45,14.10
2012,09,18,07,46,14.10
2012,09,18,07,47,14.10
2012,09,18,07,48,14.10
2012,09,18,07,49,14.20
2012,09,18,07,50,14.20
2012,09,18,07,51,14.20
2012,09,18,07,52,14.20
2012,09,18,07,53,14.30
2012,09,18,07,54,14.40
2012,09,18,07,55,14.50
2012,09,18,07,56,14.60
2012,09,18,07,57,14.60
2012,09,18,07,58,14.60
2012,09,18,07,59,14.70
2012,09,18,08,00,14.70
2012,09,18,08,01,14.80
2012,09,18,08,02,14.80
2012,09,18,08,03,14.80
2012,09,18,08,04,14.90
2012,09,18,08,05,15.00
2012,09,18,08,06,15.10
2012,09,18,08,07,15.20
2012,09,18,08,08,15.40
2012,09,18,08,09,15.50
2012,09,18,08,10,15.70
2012,09,18,08,11,15.80
2012,09,18,08,12,16.00
2012,09,18,08,13,16.20
2012,09,18,08,14,16.30
2012,09,18,08,15,16.40
2012,09,18,08,16,16.50
2012,09,18,08,17,16.70
2012,09,18,08,18,16.70
2012,09,18,08,19,16.90
2012,09,18,08,20,16.90
2012,09,18,08,21,17.00
2012,09,18,08,22,17.00
2012,09,18,08,23,17.10
2012,09,18,08,24,17.20
2012,09,18,08,25,17.20
2012,09,18,08,26,17.30
2012,09,18,08,27,17.30
2012,09,18,08,28,17.30
2012,09,18,08,29,17.40
2012,09,18,08,30,17.50
2012,09,18,08,31,17.60
2012,09,18,08,32,17.70
2012,09,18,08,33,17.80
2012,09,18,08,34,17.80
2012,09,18,08,35,17.90
2012,09,18,08,36,17.90
2012,09,18,08,37,17.90
2012,09,18,08,38,17.90
2012,09,18,08,39,18.00
2012,09,18,08,40,18.10
2012,09,18,08,41,18.10
2012,09,18,08,42,18.10
2012,09,18,08,43,18.10
2012,09,18,08,44,18.20
2012,09,18,08,45,18.20
2012,09,18,08,46,18.20
2012,09,18,08,47,18.20
2012,09,18,08,48,18.20
2012,09,18,08,49,18.20
2012,09,18,08,50,18.20
2012,09,18,08,51,18.20
2012,09,18,08,52,18.30
2012,09,18,08,53,18.30
2012,09,18,08,54,18.40
2012,09,18,08,55,18.40
2012,09,18,08,56,18.50
2012,09,18,08,57,18.50
2012,09,18,08,58,18.60
2012,09,18,08,59,18.60
2012,09,18,09,00,18.60
2012,09,18,09,01,18.70
2012,09,18,09,02,18.70
2012,09,18,09,03,18.80
2012,09,18,09,04,18.80
2012,09,18,09,05,18.80
2012,09,18,09,06,18.90
2012,09,18,09,07,18.90
2012,09,18,09,08,18.90
2012,09,18,09,09,19.00
2012,09,18,09,10,19.10
2012,09,18,09,11,19.20
2012,09,18,09,12,19.30
2012,09,18,09,13,19.40
2012,09,18,09,14,19.50
2012,09,18,09,15,19.60
2012,09,18,09,16,19.60
2012,09,18,09,17,19.70
2012,09,18,09,18,19.70
2012,09,18,09,19,19.80
2012,09,18,09,20,19.90
2012,09,18,09,21,19.90
2012,09,18,09,22,20.00
2012,09,18,09,23,20.20
2012,09,18,09,24,20.30
2012,09,18,09,25,20.40
2012,09,18,09,26,20.50
2012,09,18,09,27,20.60
2012,09,18,09,28,20.60
2012,09,18,09,29,20.70
2012,09,18,09,30,20.80
2012,09,18,09,31,20.80
2012,09,18,09,32,20.80
2012,09,18,09,33,20.90
2012,09,18,09,34,21.00
2012,09,18,09,35,21.00
2012,09,18,09,36,21.00
2012,09,18,09,37,21.10
2012,09,18,09,38,21.20
2012,09,18,09,39,21.30
2012,09,18,09,40,21.30
2012,09,18,09,41,21.30
2012,09,18,09,42,21.30
2012,09,18,09,43,21.30
2012,09,18,09,44,21.30
2012,09,18,09,45,21.20
2012,09,18,09,46,21.10
2012,09,18,09,47,20.90
2012,09,18,09,48,20.70
2012,09,18,09,49,20.50
2012,09,18,09,50,20.20
2012,09,18,09,51,19.90
2012,09,18,09,52,19.60
2012,09,18,09,53,19.40
2012,09,18,09,54,19.10
2012,09,18,09,55,18.90
2012,09,18,09,56,18.40
2012,09,18,09,57,18.00
2012,09,18,09,58,17.70
2012,09,18,09,59,17.50
2012,09,18,10,00,17.40
2012,09,18,10,01,17.20
2012,09,18,10,02,17.00
2012,09,18,10,03,16.80
2012,09,18,10,04,16.60
2012,09,18,10,05,16.50
2012,09,18,10,06,16.40
2012,09,18,10,07,16.40
2012,09,18,10,08,16.40
2012,09,18,10,09,16.50
2012,09,18,10,10,16.60
2012,09,18,10,11,16.70
2012,09,18,10,12,16.80
2012,09,18,10,13,16.90
2012,09,18,10,14,17.00
2012,09,18,10,15,17.10
2012,09,18,10,16,17.30
2012,09,18,10,17,17.30
2012,09,18,10,18,17.40
2012,09,18,10,19,17.40
2012,09,18,10,20,17.50
2012,09,18,10,21,17.50
2012,09,18,10,22,17.50
2012,09,18,10,23,17.60
2012,09,18,10,24,17.70
2012,09,18,10,25,17.60
2012,09,18,10,26,17.60
2012,09,18,10,27,17.60
2012,09,18,10,28,17.60
2012,09,18,10,29,17.50
2012,09,18,10,30,17.40
2012,09,18,10,31,17.30
2012,09,18,10,32,17.20
2012,09,18,10,33,17.20
2012,09,18,10,34,17.10
2012,09,18,10,35,17.00
2012,09,18,10,36,17.00
2012,09,18,10,37,17.00
2012,09,18,10,38,17.00
2012,09,18,10,39,17.10
2012,09,18,10,40,17.20
2012,09,18,10,41,17.20
2012,09,18,10,42,17.30
2012,09,18,10,43,17.30
2012,09,18,10,44,17.30
2012,09,18,10,45,17.30
2012,09,18,10,46,17.40
2012,09,18,10,47,17.50
2012,09,18,10,48,17.50
2012,09,18,10,49,17.60
2012,09,18,10,50,17.60
2012,09,18,10,51,17.60
2012,09,18,10,52,17.60
2012,09,18,10,53,17.60
2012,09,18,10,54,17.60
2012,09,18,10,55,17.60
2012,09,18,10,56,17.60
2012,09,18,10,57,17.50
2012,09,18,10,58,17.40
2012,09,18,10,59,17.30
2012,09,18,11,00,17.30
2012,09,18,11,01,17.30
2012,09,18,11,02,17.40
2012,09,18,11,03,17.40
2012,09,18,11,04,17.40
2012,09,18,11,05,17.40
2012,09,18,11,06,17.40
2012,09,18,11,07,17.40
2012,09,18,11,08,17.50
2012,09,18,11,09,17.70
2012,09,18,11,10,17.80
2012,09,18,11,11,18.00
2012,09,18,11,12,18.20
2012,09,18,11,13,18.30
2012,09,18,11,14,18.30
2012,09,18,11,15,18.30
2012,09,18,11,16,18.30
2012,09,18,11,17,18.20
2012,09,18,11,18,18.30
2012,09,18,11,19,18.40
2012,09,18,11,20,18.40
2012,09,18,11,21,18.40
2012,09,18,11,22,18.50
2012,09,18,11,23,18.60
2012,09,18,11,24,18.60
2012,09,18,11,25,18.70
2012,09,18,11,26,18.80
2012,09,18,11,27,18.90
2012,09,18,11,28,19.10
2012,09,18,11,29,19.30
2012,09,18,11,30,19.40
2012,09,18,11,31,19.50
2012,09,18,11,32,19.70
2012,09,18,11,33,19.80
2012,09,18,11,34,19.80
2012,09,18,11,35,19.80
2012,09,18,11,36,19.80
2012,09,18,11,37,19.70
2012,09,18,11,38,19.60
2012,09,18,11,39,19.60
2012,09,18,11,40,19.50
2012,09,18,11,41,19.50
2012,09,18,11,42,19.50
2012,09,18,11,43,19.40
2012,09,18,11,44,19.40
2012,09,18,11,45,19.40
2012,09,18,11,46,19.30
2012,09,18,11,47,19.40
2012,09,18,11,48,19.40
2012,09,18,11,49,19.40
2012,09,18,11,50,19.50
2012,09,18,11,51,19.40
2012,09,18,11,52,19.30
2012,09,18,11,53,19.30
2012,09,18,11,54,19.40
2012,09,18,11,55,19.40
2012,09,18,11,56,19.50
2012,09,18,11,57,19.50
2012,09,18,11,58,19.60
2012,09,18,11,59,19.70
2012,09,18,12,00,19.80
2012,09,18,12,01,19.90
2012,09,18,12,02,19.90
2012,09,18,12,03,19.90
2012,09,18,12,04,19.80
2012,09,18,12,05,19.80
2012,09,18,12,06,19.80
2012,09,18,12,07,19.80
2012,09,18,12,08,19.80
2012,09,18,12,09,19.80
2012,09,18,12,10,19.80
2012,09,18,12,11,19.90
2012,09,18,12,12,20.00
2012,09,18,12,13,20.10
2012,09,18,12,14,20.20
2012,09,18,12,15,20.20
2012,09,18,12,16,20.20
2012,09,18,12,17,20.40
2012,09,18,12,18,20.50
2012,09,18,12,19,20.50
2012,09,18,12,20,20.60
2012,09,18,12,21,20.70
2012,09,18,12,22,20.80
2012,09,18,12,23,20.90
2012,09,18,12,24,20.80
2012,09,18,12,25,20.80
2012,09,18,12,26,20.70
2012,09,18,12,27,20.70
2012,09,18,12,28,20.60
2012,09,18,12,29,20.50
2012,09,18,12,30,20.40
2012,09,18,12,31,20.30
2012,09,18,12,32,20.20
2012,09,18,12,33,20.00
2012,09,18,12,34,19.90
2012,09,18,12,35,19.90
2012,09,18,12,36,19.90
2012,09,18,12,37,19.90
2012,09,18,12,38,20.00
2012,09,18,12,39,20.10
2012,09,18,12,40,20.20
2012,09,18,12,41,20.20
2012,09,18,12,42,20.40
2012,09,18,12,43,20.50
2012,09,18,12,44,20.60
2012,09,18,12,45,20.70
2012,09,18,12,46,20.80
2012,09,18,12,47,20.90
2012,09,18,12,48,21.00
2012,09,18,12,49,21.00
2012,09,18,12,50,21.20
2012,09,18,12,51,21.30
2012,09,18,12,52,21.30
2012,09,18,12,53,21.30
2012,09,18,12,54,21.40
2012,09,18,12,55,21.40
2012,09,18,12,56,21.40
2012,09,18,12,57,21.40
2012,09,18,12,58,21.50
2012,09,18,12,59,21.60
2012,09,18,13,00,21.60
2012,09,18,13,01,21.50
2012,09,18,13,02,21.40
2012,09,18,13,03,21.30
2012,09,18,13,04,21.30
2012,09,18,13,05,21.20
2012,09,18,13,06,21.30
2012,09,18,13,07,21.30
2012,09,18,13,08,21.30
2012,09,18,13,09,21.40
2012,09,18,13,10,21.40
2012,09,18,13,11,21.30
2012,09,18,13,12,21.20
2012,09,18,13,13,21.00
2012,09,18,13,14,21.00
2012,09,18,13,15,20.90
2012,09,18,13,16,20.80
2012,09,18,13,17,20.80
2012,09,18,13,18,20.70
2012,09,18,13,19,20.70
2012,09,18,13,20,20.60
2012,09,18,13,21,20.60
2012,09,18,13,22,20.60
2012,09,18,13,23,20.50
2012,09,18,13,24,20.50
2012,09,18,13,25,20.50
2012,09,18,13,26,20.50
2012,09,18,13,27,20.60
2012,09,18,13,28,20.60
2012,09,18,13,29,20.60
2012,09,18,13,30,20.60
2012,09,18,13,31,20.60
2012,09,18,13,32,20.50
2012,09,18,13,33,20.50
2012,09,18,13,34,20.50
2012,09,18,13,35,20.40
2012,09,18,13,36,20.30
2012,09,18,13,37,20.40
2012,09,18,13,38,20.40
2012,09,18,13,39,20.30
2012,09,18,13,40,20.20
2012,09,18,13,41,20.20
2012,09,18,13,42,20.20
2012,09,18,13,43,20.20
2012,09,18,13,44,20.20
2012,09,18,13,45,20.20
2012,09,18,13,46,20.20
2012,09,18,13,47,20.10
2012,09,18,13,48,19.90
2012,09,18,13,49,19.80
2012,09,18,13,50,19.70
2012,09,18,13,51,19.60
2012,09,18,13,52,19.50
2012,09,18,13,53,19.50
2012,09,18,13,54,19.60
2012,09,18,13,55,19.70
2012,09,18,13,56,19.80
2012,09,18,13,57,19.80
2012,09,18,13,58,19.80
2012,09,18,13,59,19.80
2012,09,18,14,00,19.80
2012,09,18,14,01,19.80
2012,09,18,14,02,19.80
2012,09,18,14,03,19.80
2012,09,18,14,04,19.80
2012,09,18,14,05,19.80
2012,09,18,14,06,19.80
2012,09,18,14,07,19.70
2012,09,18,14,08,19.60
2012,09,18,14,09,19.50
2012,09,18,14,10,19.30
2012,09,18,14,11,19.20
2012,09,18,14,12,19.10
2012,09,18,14,13,19.10
2012,09,18,14,14,19.00
2012,09,18,14,15,18.80
2012,09,18,14,16,18.80
2012,09,18,14,17,18.70
2012,09,18,14,18,18.60
2012,09,18,14,19,18.60
2012,09,18,14,20,18.50
2012,09,18,14,21,18.50
2012,09,18,14,22,18.40
2012,09,18,14,23,18.20
2012,09,18,14,24,18.20
2012,09,18,14,25,18.30
2012,09,18,14,26,18.40
2012,09,18,14,27,18.40
2012,09,18,14,28,18.40
2012,09,18,14,29,18.40
2012,09,18,14,30,18.30
2012,09,18,14,31,18.20
2012,09,18,14,32,18.20
2012,09,18,14,33,18.20
2012,09,18,14,34,18.20
2012,09,18,14,35,18.20
2012,09,18,14,36,18.20
2012,09,18,14,37,18.20
2012,09,18,14,38,18.30
2012,09,18,14,39,18.30
2012,09,18,14,40,18.40
2012,09,18,14,41,18.50
2012,09,18,14,42,18.50
2012,09,18,14,43,18.40
2012,09,18,14,44,18.40
2012,09,18,14,45,18.40
2012,09,18,14,46,18.30
2012,09,18,14,47,18.40
2012,09,18,14,48,18.40
2012,09,18,14,49,18.50
2012,09,18,14,50,18.60
2012,09,18,14,51,18.60
2012,09,18,14,52,18.60
2012,09,18,14,53,18.60
2012,09,18,14,54,18.60
2012,09,18,14,55,18.60
2012,09,18,14,56,18.60
2012,09,18,14,57,18.60
2012,09,18,14,58,18.70
2012,09,18,14,59,18.80
2012,09,18,15,00,18.90
2012,09,18,15,01,18.90
2012,09,18,15,02,19.00
2012,09,18,15,03,19.10
2012,09,18,15,04,19.10
2012,09,18,15,05,19.10
2012,09,18,15,06,19.10
2012,09,18,15,07,19.10
2012,09,18,15,08,19.00
2012,09,18,15,09,19.00
2012,09,18,15,10,19.10
2012,09,18,15,11,19.10
2012,09,18,15,12,19.10
2012,09,18,15,13,19.10
2012,09,18,15,14,19.10
2012,09,18,15,15,19.10
2012,09,18,15,16,19.10
2012,09,18,15,17,19.10
2012,09,18,15,18,19.10
2012,09,18,15,19,19.10
2012,09,18,15,20,19.10
2012,09,18,15,21,19.10
2012,09,18,15,22,19.00
2012,09,18,15,23,18.90
2012,09,18,15,24,18.90
2012,09,18,15,25,18.80
2012,09,18,15,26,18.80
2012,09,18,15,27,18.90
2012,09,18,15,28,18.90
2012,09,18,15,29,18.90
2012,09,18,15,30,19.00
2012,09,18,15,31,19.10
2012,09,18,15,32,19.10
2012,09,18,15,33,19.20
2012,09,18,15,34,19.30
2012,09,18,15,35,19.40
2012,09,18,15,36,19.40
2012,09,18,15,37,19.50
2012,09,18,15,38,19.50
2012,09,18,15,39,19.60
2012,09,18,15,40,19.60
2012,09,18,15,41,19.60
2012,09,18,15,42,19.60
2012,09,18,15,43,19.60
2012,09,18,15,44,19.50
2012,09,18,15,45,19.40
2012,09,18,15,46,19.50
2012,09,18,15,47,19.50
2012,09,18,15,48,19.60
2012,09,18,15,49,19.60
2012,09,18,15,50,19.60
2012,09,18,15,51,19.60
2012,09,18,15,52,19.70
2012,09,18,15,53,19.70
2012,09,18,15,54,19.70
2012,09,18,15,55,19.80
2012,09,18,15,56,19.80
2012,09,18,15,57,19.80
2012,09,18,15,58,19.90
2012,09,18,15,59,19.90
2012,09,18,16,00,19.90
2012,09,18,16,01,19.90
2012,09,18,16,02,19.90
2012,09,18,16,03,19.90
2012,09,18,16,04,19.90
2012,09,18,16,05,20.00
2012,09,18,16,06,20.10
2012,09,18,16,07,20.10
2012,09,18,16,08,20.20
2012,09,18,16,09,20.20
2012,09,18,16,10,20.20
2012,09,18,16,11,20.20
2012,09,18,16,12,20.30
2012,09,18,16,13,20.20
2012,09,18,16,14,20.30
2012,09,18,16,15,20.20
2012,09,18,16,16,20.20
2012,09,18,16,17,20.20
2012,09,18,16,18,20.20
2012,09,18,16,19,20.10
2012,09,18,16,20,20.00
2012,09,18,16,21,19.90
2012,09,18,16,22,19.90
2012,09,18,16,23,19.90
2012,09,18,16,24,19.90
2012,09,18,16,25,19.90
2012,09,18,16,26,19.90
2012,09,18,16,27,19.90
2012,09,18,16,28,19.90
2012,09,18,16,29,19.90
2012,09,18,16,30,19.90
2012,09,18,16,31,20.00
2012,09,18,16,32,20.00
2012,09,18,16,33,19.90
2012,09,18,16,34,19.90
2012,09,18,16,35,19.80
2012,09,18,16,36,19.70
2012,09,18,16,37,19.70
2012,09,18,16,38,19.50
2012,09,18,16,39,19.40
2012,09,18,16,40,19.30
2012,09,18,16,41,19.30
2012,09,18,16,42,19.30
2012,09,18,16,43,19.20
2012,09,18,16,44,19.10
2012,09,18,16,45,19.10
2012,09,18,16,46,19.10
2012,09,18,16,47,19.10
2012,09,18,16,48,19.10
2012,09,18,16,49,19.10
2012,09,18,16,50,19.10
2012,09,18,16,51,19.10
2012,09,18,16,52,19.10
2012,09,18,16,53,19.10
2012,09,18,16,54,19.10
2012,09,18,16,55,19.10
2012,09,18,16,56,19.10
2012,09,18,16,57,19.10
2012,09,18,16,58,19.10
2012,09,18,16,59,19.10
2012,09,18,17,00,19.10
2012,09,18,17,01,19.10
2012,09,18,17,02,19.10
2012,09,18,17,03,19.10
2012,09,18,17,04,19.00
2012,09,18,17,05,18.90
2012,09,18,17,06,18.90
2012,09,18,17,07,18.80
2012,09,18,17,08,18.70
2012,09,18,17,09,18.60
2012,09,18,17,10,18.60
2012,09,18,17,11,18.50
2012,09,18,17,12,18.40
2012,09,18,17,13,18.30
2012,09,18,17,14,18.20
2012,09,18,17,15,18.30
2012,09,18,17,16,18.30
2012,09,18,17,17,18.30
2012,09,18,17,18,18.30
2012,09,18,17,19,18.40